Weather History for Key West, FL

Change the Weather History Date:

Thursday, October 14, 2010

  Actual Average Record
Temperature  
Mean Temperature 75 °F 81 °F  
Max Temperature 77 °F 85 °F 90 °F (1993)
Min Temperature 73 °F 76 °F 67 °F (1977)
Degree Days  
Heating Degree Days 0 0  
Month to date heating degree days 0 0  
Since 1 July heating degree days 0 0  
Cooling Degree Days 10 16  
Month to date cooling degree days 200 231  
Year to date cooling degree days 3808 3966  
Growing Degree Days 25 (Base 50)    
Moisture  
Dew Point 74 °F    
Average Humidity 97    
Maximum Humidity 100    
Minimum Humidity 94    
Precipitation  
Precipitation 1.40 in 0.17 in 3.77 in (1999)
Month to date precipitation 2.80 2.60  
Year to date precipitation 32.04 32.98  
Snow  
Snow 0.00 in - - ()
Month to date snowfall 0.0  
Since 1 July snowfall 0.0  
Since 1 September snowfall 0.0  
Snow Depth 0.00 in    
Sea Level Pressure  
Sea Level Pressure 29.93 in    
Wind  
Wind Speed 3 mph (NNE)    
Max Wind Speed 17 mph    
Max Gust Speed 20 mph    
Visibility 8 miles    
Events Rain , Thunderstorm    
T = Trace of Precipitation, MM = Missing Value Source: NWS Daily Summary

Daily Weather History Graph

Daily Weather History Graph

Search for Another Location

Airport:

Trip Planner

Search our weather history database for the weather conditions in past years. The results will help you decide how hot, cold, wet, or windy it might be!

Date:

Astronomy

Oct. 14, 2010 Rise Set
Actual Time 7:24 AM EDT 7:01 PM EDT
Civil Twilight 7:01 AM EDT 7:24 PM EDT
Nautical Twilight 6:35 AM EDT 7:50 PM EDT
Astronomical Twilight 6:08 AM EDT 8:16 PM EDT
Moon 1:59 PM EDT (10/14) 12:07 AM EDT (10/14)
Length of Visible Light 12h 22m
Length of Day
11h 36m
Waxing Crescent, 48% of the Moon is Illuminated
Oct 14
Waxing Crescent
Oct 14
First Quarter
Oct 22
Full
Oct 30
Last Quarter
Nov 6
New

Hourly Weather History & Observations

Time (EDT) Temp. Dew Point Humidity Pressure Visibility Wind Dir Wind Speed Gust Speed Precip Events Conditions
12:53 AM 77.0 °F 75.9 °F 96% 29.97 in 10.0 mi East 3.5 mph - N/A   Clear
1:53 AM 75.9 °F 75.0 °F 97% 29.95 in 10.0 mi ENE 3.5 mph - N/A   Clear
2:53 AM 77.0 °F 75.0 °F 94% 29.93 in 10.0 mi Calm Calm - N/A   Clear
3:53 AM 75.9 °F 75.9 °F 100% 29.93 in 10.0 mi Calm Calm - 0.00 in Rain Light Rain
4:53 AM 77.0 °F 75.9 °F 96% 29.92 in 10.0 mi NNE 3.5 mph - 0.00 in   Clear
5:53 AM 75.9 °F 75.9 °F 100% 29.93 in 10.0 mi Calm Calm - 0.01 in Rain Light Rain
6:31 AM 75.2 °F 75.2 °F 100% 29.93 in 10.0 mi NNE 3.5 mph - 0.03 in Rain , Thunderstorm Light Rain
6:50 AM 75.2 °F 75.2 °F 100% 29.94 in 5.0 mi NNW 6.9 mph - 0.07 in Rain , Thunderstorm Rain
6:53 AM 75.2 °F 75.2 °F 100% 29.94 in 2.5 mi NNW 5.8 mph - N/A Rain , Thunderstorm Rain
7:06 AM 75.2 °F 75.2 °F 100% 29.94 in 4.0 mi NNW 8.1 mph - 0.03 in Rain , Thunderstorm Heavy Rain
7:13 AM 75.2 °F 75.2 °F 100% 29.95 in 2.5 mi WNW 17.3 mph - 0.07 in Rain Heavy Rain
7:17 AM 75.2 °F 75.2 °F 100% 29.96 in 1.2 mi West 10.4 mph 19.6 mph 0.20 in Rain Heavy Rain
7:26 AM 73.4 °F 73.4 °F 100% 29.95 in 0.8 mi Calm Calm - 0.56 in Rain Heavy Rain
7:31 AM 73.4 °F 73.4 °F 100% 29.95 in 2.0 mi North 4.6 mph - 0.62 in Rain Heavy Rain
7:35 AM 73.4 °F 73.4 °F 100% 29.95 in 4.0 mi North 3.5 mph - 0.62 in Rain Light Rain
7:53 AM 73.9 °F 73.9 °F 100% 29.94 in 10.0 mi North 5.8 mph - 0.62 in   Mostly Cloudy
8:53 AM 75.9 °F 75.0 °F 97% 29.96 in 10.0 mi NNE 3.5 mph - N/A   Scattered Clouds
9:19 AM 75.2 °F 75.2 °F 100% 29.97 in 10.0 mi East 6.9 mph - N/A   Mostly Cloudy
9:31 AM 75.2 °F 75.2 °F 100% 29.97 in 9.0 mi East 4.6 mph - N/A   Overcast
9:53 AM 75.0 °F 73.9 °F 96% 29.97 in 10.0 mi Calm Calm - N/A   Mostly Cloudy
10:53 AM 75.0 °F 73.0 °F 94% 29.97 in 10.0 mi Calm Calm - 0.00 in Rain Light Rain
11:53 AM 75.0 °F 73.0 °F 94% 29.97 in 5.0 mi Calm Calm - 0.04 in Rain Rain
12:11 PM 75.2 °F 73.4 °F 94% 29.97 in 6.0 mi Calm Calm - 0.02 in Rain Light Rain
12:33 PM 73.4 °F 73.4 °F 100% 29.96 in 5.0 mi Calm Calm - 0.06 in Rain Rain
12:53 PM 73.9 °F 73.9 °F 100% 29.95 in 5.0 mi Calm Calm - 0.10 in Rain Rain
1:53 PM 73.9 °F 73.9 °F 100% 29.94 in 3.0 mi Calm Calm - 0.16 in Rain Rain
2:28 PM 73.4 °F 73.4 °F 100% 29.91 in 6.0 mi NE 3.5 mph - 0.07 in Rain Light Rain
2:53 PM 73.9 °F 73.9 °F 100% 29.91 in 6.0 mi Calm Calm - 0.08 in Rain Rain
3:39 PM 73.4 °F 73.4 °F 100% 29.89 in 4.0 mi NNE 5.8 mph - 0.05 in Rain Rain
3:53 PM 73.9 °F 73.9 °F 100% 29.88 in 7.0 mi NNE 5.8 mph - 0.07 in Rain Light Rain
4:53 PM 73.9 °F 73.0 °F 97% 29.88 in 10.0 mi NE 3.5 mph - 0.01 in Rain Light Rain
5:28 PM 73.4 °F 73.4 °F 100% 29.89 in 6.0 mi North 9.2 mph - 0.03 in Rain Light Rain
5:36 PM 73.4 °F 73.4 °F 100% 29.89 in 9.0 mi North 6.9 mph - 0.03 in Rain Light Rain
5:53 PM 73.9 °F 73.0 °F 97% 29.88 in 10.0 mi NE 5.8 mph - 0.04 in Rain Light Rain
6:53 PM 73.9 °F 73.9 °F 100% 29.88 in 9.0 mi NNE 5.8 mph - 0.05 in Rain Light Rain
7:05 PM 73.4 °F 73.4 °F 100% 29.88 in 8.0 mi NE 5.8 mph - 0.01 in Rain Rain
7:28 PM 73.4 °F 73.4 °F 100% 29.88 in 10.0 mi NE 5.8 mph - 0.04 in Rain Light Rain
7:53 PM 73.9 °F 73.9 °F 100% 29.86 in 8.0 mi NNE 8.1 mph - 0.11 in Rain Rain
8:03 PM 73.4 °F 73.4 °F 100% 29.88 in 9.0 mi NE 4.6 mph - 0.01 in Rain Light Rain
8:10 PM 73.4 °F 73.4 °F 100% 29.88 in 9.0 mi ENE 5.8 mph - 0.02 in Rain Light Rain
8:32 PM 73.4 °F 73.4 °F 100% 29.91 in 10.0 mi NNE 4.6 mph - 0.03 in Rain Light Rain
8:53 PM 73.9 °F 73.9 °F 100% 29.91 in 10.0 mi ENE 6.9 mph - 0.03 in Rain Light Rain
9:53 PM 73.9 °F 73.9 °F 100% 29.92 in 10.0 mi NE 3.5 mph - 0.01 in   Clear
10:53 PM 73.9 °F 73.0 °F 97% 29.93 in 10.0 mi NNE 5.8 mph - N/A   Mostly Cloudy
11:53 PM 73.9 °F 73.0 °F 97% 29.93 in 10.0 mi North 5.8 mph - N/A   Overcast